Content
SEND FEEDBACK

Daily
Averages
Monthly
Summary
France

EVREUX, FRANCE


Home > Europe > France
Elevation: 461 feet     Latitude: 49 01N     Longitude: 001 13E

WEATHER
 
SELECT A DAY
Number of Records: 208,146;   Date Range: 7/1/96 - 11/21/14
 
SHARE

PRINT THIS DATA

[ ← Previous Day ]
WEATHER ALMANAC - JANUARY 31, 2013
[ Next Day → ]
[ °C ]   °F
Weather ElementAverageHighLow
Temperature45.9 °F53.6 °F (3:00 pm)37.4 °F (4:30 am)
Dewpoint40.2 °F46.4 °F (1:30 pm)35.6 °F (1:00 am)
Humidity80.9 %93 % (4:00 am)62 % (3:30 pm)
Barometer30.11 in30.21 in (12:30 am)30.06 in (1:00 pm)
Wind Speed14.6 mph24.2 mph (2:00 pm)
Wind Gust34.5 mph (1:30 pm)
Weather ElementAverage
Visibility6.2 mi
Wind DirectionSW (230.2 °)

Weather ElementTotal
Precipitation---
Heating Degree Days19.5 (Base 65)
Averaged from 47 records on January 31, 2013
WEATHER CONDITIONS BREAKOUT
WIND DIRECTION BREAKOUT
WEATHER BY HOUR - JANUARY 31, 2013
[ °C ]   °F
Local TimeTemperatureDewpointHumidityBarometerVisibilityWind DirectionWind SpeedGust SpeedPrecipitationEventsConditions
12:30 AM42.8 °F37.4 °F81 %30.21 in6.2 miWSW (240°)9.2 mph
1:00 AM41.0 °F35.6 °F81 %30.21 in6.2 miSW (220°)8.1 mph
1:30 AM41.0 °F37.4 °F87 %30.21 in6.2 miSW (220°)10.4 mph
2:00 AM41.0 °F37.4 °F87 %30.21 in6.2 miSW (230°)10.4 mph
2:30 AM39.2 °F35.6 °F87 %30.21 in6.2 miSW (230°)9.2 mph
3:00 AM39.2 °F35.6 °F87 %30.21 in6.2 miSW (220°)9.2 mph
3:30 AM39.2 °F35.6 °F87 %30.21 in6.2 miSSW (210°)10.4 mph
4:00 AM39.2 °F37.4 °F93 %30.18 in6.2 miSSW (200°)9.2 mph
4:30 AM37.4 °F35.6 °F93 %30.18 in6.2 miSouth (190°)9.2 mph
5:00 AM39.2 °F37.4 °F93 %30.15 in6.2 miSouth (190°)9.2 mph
5:30 AM39.2 °F37.4 °F93 %30.15 in6.2 miSSW (200°)11.5 mph
6:00 AM41.0 °F37.4 °F87 %30.15 in6.2 miSSW (210°)15.0 mph
6:30 AM39.2 °F37.4 °F93 %30.12 in6.2 miSSW (210°)11.5 mph
7:00 AM41.0 °F39.2 °F93 %30.12 in6.2 miSSW (210°)16.1 mphOvercast
7:30 AM41.0 °F39.2 °F93 %30.12 in6.2 miSSW (210°)15.0 mphOvercast
8:00 AM42.8 °F41.0 °F93 %30.12 in6.2 miSW (220°)18.4 mphMostly Cloudy
8:30 AM44.6 °F41.0 °F87 %30.09 in6.2 miSSW (210°)20.7 mphMostly Cloudy
9:00 AM44.6 °F41.0 °F87 %30.09 in6.2 miSSW (210°)19.6 mphMostly Cloudy
9:30 AM44.6 °F41.0 °F87 %30.09 in6.2 miSSW (210°)19.6 mphMostly Cloudy
10:00 AM46.4 °F42.8 °F87 %30.09 in6.2 miSSW (210°)19.6 mphMostly Cloudy
10:30 AM48.2 °F42.8 °F82 %30.09 in6.2 miSW (220°)21.9 mphOvercast
11:00 AM48.2 °F42.8 °F82 %30.09 in6.2 miSW (220°)21.9 mphMostly Cloudy
11:30 AM50.0 °F42.8 °F76 %30.09 in6.2 miSW (220°)19.6 mphMostly Cloudy
12:00 PM50.0 °F42.8 °F76 %30.09 in6.2 miSW (220°)21.9 mphOvercast
12:30 PM50.0 °F44.6 °F82 %30.09 in6.2 miSW (230°)19.6 mphRainLight Rain
1:00 PM51.8 °F44.6 °F76 %30.06 in6.2 miSW (230°)17.3 mphOvercast
1:30 PM51.8 °F46.4 °F82 %30.06 in6.2 miWSW (250°)21.9 mph34.5 mphMostly Cloudy
2:00 PM51.8 °F44.6 °F76 %30.06 in6.2 miWSW (250°)24.2 mphMostly Cloudy
2:30 PM51.8 °F44.6 °F76 %30.06 in6.2 miWSW (250°)21.9 mph34.5 mphMostly Cloudy
3:00 PM53.6 °F42.8 °F67 %30.06 in6.2 miWest (260°)17.3 mphMostly Cloudy
3:30 PM53.6 °F41.0 °F62 %30.09 in6.2 miWest (270°)17.3 mphMostly Cloudy
4:00 PM51.8 °F39.2 °F62 %30.09 in6.2 miWest (260°)19.6 mphScattered Clouds
4:30 PM51.8 °F39.2 °F62 %30.06 in6.2 miWest (260°)17.3 mphMostly Cloudy
5:00 PM50.0 °F39.2 °F66 %30.09 in6.2 miWest (260°)17.3 mphScattered Clouds
5:30 PM50.0 °F41.0 °F71 %30.09 in6.2 miWest (260°)15.0 mphPartly Cloudy
6:00 PM50.0 °F41.0 °F71 %30.09 in6.2 miWest (260°)12.7 mphOvercast
6:30 PM50.0 °F41.0 °F71 %30.09 in6.2 miWSW (250°)12.7 mphOvercast
7:00 PM48.2 °F41.0 °F76 %30.09 in6.2 miWSW (250°)11.5 mphOvercast
7:30 PM48.2 °F41.0 °F76 %30.09 in6.2 miWSW (250°)10.4 mph
8:00 PM46.4 °F39.2 °F76 %30.12 in6.2 miWSW (250°)10.4 mph
8:30 PM46.4 °F41.0 °F81 %30.09 in6.2 miWSW (240°)8.1 mphMostly Cloudy
9:00 PM46.4 °F41.0 °F81 %30.09 in6.2 miWSW (240°)9.2 mphMostly Cloudy
9:30 PM48.2 °F41.0 °F76 %30.09 in6.2 miWSW (250°)11.5 mphMostly Cloudy
10:00 PM48.2 °F41.0 °F76 %30.09 in6.2 miWSW (250°)12.7 mph
10:30 PM46.4 °F41.0 °F81 %30.09 in6.2 miWSW (240°)10.4 mph
11:00 PM46.4 °F41.0 °F81 %30.09 in6.2 miSW (230°)10.4 mph
11:30 PM46.4 °F41.0 °F81 %30.06 in6.2 miSSW (200°)9.2 mph
Hourly data recorded from LFOE, located miles away from Evreux, France







STORIES FROM OUR PARTNERS